Hourly Data Report for April 02, 2016

All times are specified in Local Standard Time (LST). Add 1 hour to adjust for Daylight Saving Time where and when it is observed.

EMERSON AUTO
MANITOBA

49°00'00.000" N
97°14'15.000" W
242.00 m
5020881
71560
WEX

Download Data

Hourly Data (April 2016)
Hourly Data Report for April 2, 2016
Temp Definition
°C
Dew Point Temp Definition
°C
Rel Hum Definition
%
Wind Dir Definition
10's deg

Wind Spd Definition
km/h
Visibility Definition
km
Stn Press Definition
kPa
Hmdx Definition


Wind Chill Definition


Weather Definition


TIME
00:00 -5.3 -6.9 88 1 26   98.11   -13 LegendNANA
01:00 -5.8 -7.9 85 36 42   98.24   -15 LegendNANA
02:00 -6.4 -8.4 85 36 34   98.32   -15 LegendNANA
03:00 -8.6 -11.8 77 36 39   98.45   -19 LegendNANA
04:00 -9.3 -12.3 79 35 36   98.54   -19 LegendNANA
05:00 -9.7 -12.7 79 34 34   98.68   -20 LegendNANA
06:00 -10.2 -12.6 83 34 29   98.77   -20 LegendNANA
07:00 -9.9 -12.7 80 35 30   98.86   -19 LegendNANA
08:00 -9.4 -13.5 72 35 27   98.94   -18 LegendNANA
09:00 -8.7 -13.0 71 34 25   99.00   -17 LegendNANA
10:00 -7.9 -11.7 74 34 23   99.05   -16 LegendNANA
11:00 -7.1 -11.6 70 34 23   99.03   -15 LegendNANA
12:00 -6.5 -12.3 63 33 21   98.97   -14 LegendNANA
13:00 -6.0 -12.1 62 35 14   98.87   -12 LegendNANA
14:00 -6.2 -11.6 65 35 7   98.78   -10 LegendNANA
15:00 -6.0 -10.7 70 17 4   98.65   -8 LegendNANA
16:00 -5.5 -10.1 70 18 7   98.58   -9 LegendNANA
17:00 -4.9 -10.5 65 18 13   98.48   -10 LegendNANA
18:00 -4.3 -10.7 61 15 16   98.34   -10 LegendNANA
19:00 -4.9 -10.4 65 13 17   98.22   -11 LegendNANA
20:00 -5.4 -9.9 70 13 17   98.15   -11 LegendNANA
21:00 -5.6 -9.9 71 13 18   98.10   -12 LegendNANA
22:00 -5.5 -10.0 71 13 18   98.00   -12 LegendNANA
23:00 -5.3 -9.4 73 12 16   97.86   -11 LegendNANA

Notes on Data Quality.

Legend

  • E = Estimated
  • M = Missing
  • NA = Not Available
  • ‡ = Partner data that is not subject to review by the National Climate Archives
Date modified: